Weather History for KCQM - February, 2013

Change the Weather History Date:

Sunday, February 10, 2013

  Actual Average Record
Temperature  
Mean Temperature 25 °F -  
Max Temperature 26 °F 22 °F 42 °F (1999)
Min Temperature 24 °F 1 °F -32 °F (2011)
Degree Days  
Heating Degree Days 40    
Moisture  
Dew Point 24 °F    
Average Humidity 95    
Maximum Humidity 100    
Minimum Humidity 86    
Precipitation  
Precipitation 0.12 in - - ()
Sea Level Pressure  
Sea Level Pressure 29.68 in    
Wind  
Wind Speed 4 mph (NE)    
Max Wind Speed 13 mph    
Max Gust Speed 20 mph    
Visibility 4 miles    
Events Snow    
Averages and records for this station are not official NWS values.
T = Trace of Precipitation, MM = Missing Value Source: NWS Daily Summary

Daily Weather History Graph

Daily Weather History Graph

Search for Another Location

Airport or City:

Trip Planner

Search our weather history database for the weather conditions in past years. The results will help you decide how hot, cold, wet, or windy it might be!

Date:

Astronomy

Feb. 10, 2013 Rise Set
Actual Time 7:24 AM CST 5:26 PM CST
Civil Twilight 6:52 AM CST 5:58 PM CST
Nautical Twilight 6:15 AM CST 6:34 PM CST
Astronomical Twilight 5:39 AM CST 7:10 PM CST
Moon 7:08 AM CST (2/10) 6:25 PM CST (2/10)
Length of Visible Light 11h 06m
Length of Day
10h 01m
New Moon, 0% of the Moon is Illuminated
Feb 10
New Moon
Feb 17
First Quarter
Feb 25
Full
Mar 4
Last Quarter
Mar 11
New

Hourly Weather History & Observations

Time (CST) Temp. Windchill Dew Point Humidity Pressure Visibility Wind Dir Wind Speed Gust Speed Precip Events Conditions
12:17 AM 24.8 °F - 24.8 °F 100% 29.93 in 5.0 mi Calm Calm - N/A   Overcast
12:37 AM 24.8 °F - 24.8 °F 100% 29.93 in 5.0 mi Calm Calm - N/A   Overcast
12:56 AM 24.8 °F - 24.8 °F 100% 29.92 in 5.0 mi Calm Calm - N/A   Overcast
1:17 AM 24.8 °F - 24.8 °F 100% 29.92 in 5.0 mi Calm Calm - N/A   Overcast
1:37 AM 24.8 °F - 24.8 °F 100% 29.92 in 4.0 mi Calm Calm - N/A   Overcast
1:56 AM 24.8 °F - 24.8 °F 100% 29.91 in 4.0 mi Calm Calm - N/A   Overcast
2:17 AM 24.8 °F - 24.8 °F 100% 29.91 in 4.0 mi Calm Calm - N/A   Overcast
2:37 AM 24.8 °F - 24.8 °F 100% 29.91 in 4.0 mi Calm Calm - N/A   Overcast
2:56 AM 24.8 °F 20.5 °F 24.8 °F 100% 29.91 in 4.0 mi SE 3.5 mph - N/A   Overcast
3:17 AM 24.8 °F - 24.8 °F 100% 29.90 in 4.0 mi Calm Calm - N/A   Overcast
3:37 AM 24.8 °F - 24.8 °F 100% 29.89 in 4.0 mi Calm Calm - N/A   Overcast
3:56 AM 24.8 °F - 24.8 °F 100% 29.88 in 4.0 mi Calm Calm - N/A   Overcast
4:17 AM 24.8 °F 20.5 °F 24.8 °F 100% 29.87 in 4.0 mi East 3.5 mph - N/A   Overcast
4:36 AM 24.8 °F - 24.8 °F 100% 29.88 in 4.0 mi Calm Calm - N/A   Overcast
4:57 AM 24.8 °F 20.5 °F 24.8 °F 100% 29.87 in 4.0 mi East 3.5 mph - N/A   Overcast
5:16 AM 24.8 °F - 24.8 °F 100% 29.86 in 4.0 mi Calm Calm - N/A   Overcast
5:36 AM 24.8 °F - 24.8 °F 100% 29.86 in 4.0 mi Calm Calm - N/A   Overcast
5:57 AM 24.8 °F - 24.8 °F 100% 29.85 in 4.0 mi Calm Calm - N/A   Overcast
6:16 AM 24.8 °F 20.5 °F 24.8 °F 100% 29.84 in 4.0 mi ENE 3.5 mph - N/A   Overcast
6:36 AM 24.8 °F - 24.8 °F 100% 29.83 in 4.0 mi Calm Calm - N/A Snow Light Snow
6:57 AM 24.8 °F 20.5 °F 23.0 °F 93% 29.84 in 5.0 mi East 3.5 mph - N/A   Overcast
7:16 AM 24.8 °F 19.1 °F 23.0 °F 93% 29.84 in 5.0 mi East 4.6 mph - N/A   Overcast
7:36 AM 24.8 °F 19.1 °F 23.0 °F 93% 29.83 in 4.0 mi East 4.6 mph - N/A   Overcast
7:57 AM 24.8 °F 20.5 °F 23.0 °F 93% 29.81 in 5.0 mi ENE 3.5 mph - N/A   Overcast
8:16 AM 24.8 °F 17.9 °F 23.0 °F 93% 29.80 in 5.0 mi East 5.8 mph - N/A   Overcast
8:36 AM 24.8 °F 16.9 °F 23.0 °F 93% 29.80 in 5.0 mi East 6.9 mph - N/A   Overcast
8:56 AM 24.8 °F 16.9 °F 23.0 °F 93% 29.80 in 3.0 mi East 6.9 mph - N/A   Overcast
9:16 AM 24.8 °F 16.9 °F 23.0 °F 93% 29.78 in 4.0 mi ENE 6.9 mph - N/A   Overcast
9:37 AM 24.8 °F 16.1 °F 23.0 °F 93% 29.76 in 4.0 mi East 8.1 mph - N/A   Overcast
9:56 AM 26.6 °F 17.5 °F 23.0 °F 86% 29.76 in 5.0 mi East 9.2 mph 16.1 mph N/A   Overcast
10:17 AM 26.6 °F 16.8 °F 23.0 °F 86% 29.76 in 7.0 mi East 10.4 mph 18.4 mph N/A   Overcast
10:37 AM 26.6 °F 17.5 °F 23.0 °F 86% 29.76 in 7.0 mi East 9.2 mph - N/A   Overcast
10:56 AM 26.6 °F 15.7 °F 23.0 °F 86% 29.74 in 7.0 mi East 12.7 mph 17.3 mph N/A   Overcast
11:17 AM 26.6 °F 16.2 °F 24.8 °F 93% 29.74 in 7.0 mi East 11.5 mph 19.6 mph N/A   Overcast
11:36 AM 26.6 °F 18.2 °F 24.8 °F 93% 29.73 in 5.0 mi East 8.1 mph - N/A   Overcast
11:57 AM 26.6 °F 18.2 °F 24.8 °F 93% 29.70 in 7.0 mi ENE 8.1 mph 16.1 mph N/A   Overcast
12:17 PM 26.6 °F 17.5 °F 24.8 °F 93% 29.68 in 7.0 mi ENE 9.2 mph - N/A   Overcast
12:36 PM 26.6 °F 15.7 °F 24.8 °F 93% 29.66 in 7.0 mi ENE 12.7 mph 18.4 mph N/A   Overcast
12:57 PM 26.6 °F 17.5 °F 24.8 °F 93% 29.65 in 7.0 mi ENE 9.2 mph 18.4 mph N/A   Overcast
1:17 PM 26.6 °F 16.2 °F 24.8 °F 93% 29.66 in 10.0 mi ENE 11.5 mph 18.4 mph N/A   Overcast
1:36 PM 26.6 °F 18.2 °F 24.8 °F 93% 29.65 in 10.0 mi NE 8.1 mph - N/A   Overcast
1:57 PM 26.6 °F 19.1 °F 24.8 °F 93% 29.62 in 10.0 mi ENE 6.9 mph - N/A   Overcast
2:17 PM 26.6 °F 16.2 °F 24.8 °F 93% 29.60 in 10.0 mi NE 11.5 mph 17.3 mph N/A   Overcast
2:36 PM 26.6 °F 16.8 °F 24.8 °F 93% 29.59 in 10.0 mi NE 10.4 mph 16.1 mph N/A   Overcast
2:57 PM 26.6 °F 16.8 °F 24.8 °F 93% 29.60 in 0.5 mi ENE 10.4 mph 17.3 mph N/A Snow Snow
3:17 PM 26.6 °F 18.2 °F 24.8 °F 93% 29.55 in 0.5 mi NE 8.1 mph 16.1 mph N/A Snow Snow
3:36 PM 26.6 °F 17.5 °F 24.8 °F 93% 29.53 in 0.2 mi NNE 9.2 mph 18.4 mph 0.01 in Snow Heavy Snow
3:57 PM 26.6 °F 16.2 °F 24.8 °F 93% 29.51 in 0.2 mi NE 11.5 mph 16.1 mph N/A Snow Heavy Snow
4:16 PM 26.6 °F 16.8 °F 24.8 °F 93% 29.50 in 0.2 mi NE 10.4 mph 19.6 mph N/A Snow Snow
4:36 PM 26.6 °F 16.8 °F 24.8 °F 93% 29.50 in 0.2 mi NE 10.4 mph 17.3 mph N/A Snow Snow
4:56 PM 26.6 °F 18.2 °F 24.8 °F 93% 29.52 in 0.2 mi ENE 8.1 mph 17.3 mph N/A Snow Snow
5:17 PM 26.6 °F 19.1 °F 24.8 °F 93% 29.50 in 0.2 mi NE 6.9 mph - 0.01 in Snow Snow
5:36 PM 24.8 °F 16.9 °F 24.8 °F 100% 29.50 in 0.8 mi NE 6.9 mph - 0.01 in Snow Snow
5:56 PM 24.8 °F 17.9 °F 24.8 °F 100% 29.50 in 0.5 mi NE 5.8 mph - N/A Snow Snow
6:17 PM 24.8 °F 17.9 °F 24.8 °F 100% 29.50 in 0.2 mi NE 5.8 mph - 0.02 in Snow Heavy Snow
6:36 PM 24.8 °F 16.9 °F 24.8 °F 100% 29.50 in 0.2 mi NE 6.9 mph - 0.04 in Snow Heavy Snow
6:57 PM 26.6 °F 19.1 °F 24.8 °F 93% 29.50 in 0.5 mi NNE 6.9 mph - N/A Snow Heavy Snow
7:17 PM 26.6 °F 21.2 °F 24.8 °F 93% 29.49 in 0.8 mi NNE 4.6 mph - 0.01 in Snow Snow
7:36 PM 26.6 °F 20.0 °F 24.8 °F 93% 29.48 in 1.0 mi NNE 5.8 mph - 0.03 in Snow Light Snow
7:57 PM 26.6 °F 21.2 °F 24.8 °F 93% 29.48 in 2.5 mi NNE 4.6 mph - 0.01 in Snow Light Snow
8:17 PM 26.6 °F 20.0 °F 24.8 °F 93% 29.47 in 5.0 mi NNE 5.8 mph - 0.02 in Snow Light Snow
8:36 PM 26.6 °F 18.2 °F 24.8 °F 93% 29.46 in 7.0 mi NNE 8.1 mph - 0.02 in   Overcast
8:57 PM 24.8 °F 17.9 °F 23.0 °F 93% 29.46 in 10.0 mi North 5.8 mph - N/A Snow Light Snow
9:17 PM 24.8 °F 16.9 °F 23.0 °F 93% 29.45 in 4.0 mi NNE 6.9 mph - N/A Snow Light Snow
9:36 PM 24.8 °F 16.9 °F 23.0 °F 93% 29.44 in 2.0 mi NNE 6.9 mph - N/A Snow Light Snow
9:57 PM 24.8 °F 14.6 °F 23.0 °F 93% 29.44 in 3.0 mi NNE 10.4 mph 18.4 mph N/A Snow Light Snow
10:16 PM 24.8 °F 14.6 °F 23.0 °F 93% 29.44 in 2.5 mi NNE 10.4 mph 16.1 mph N/A Snow Light Snow
10:36 PM 24.8 °F 16.1 °F 23.0 °F 93% 29.43 in 1.2 mi NNE 8.1 mph 16.1 mph N/A Snow Light Snow
10:57 PM 24.8 °F 16.9 °F 23.0 °F 93% 29.43 in 2.0 mi North 6.9 mph - N/A Snow Light Snow
11:16 PM 24.8 °F 16.1 °F 23.0 °F 93% 29.43 in 5.0 mi North 8.1 mph - N/A Snow Light Snow
11:37 PM 24.8 °F 16.1 °F 23.0 °F 93% 29.43 in 10.0 mi North 8.1 mph - 0.01 in Snow Light Snow
11:57 PM 24.8 °F 16.9 °F 23.0 °F 93% 29.43 in 2.5 mi NNE 6.9 mph - N/A Snow Light Snow